Simultaneous Nadir Overpasses (SNOs) Predictions

Prediction of SNOs between AQUA and GOES-15 Satellite Orbit:

Table of predicted SNOs for the next 14.0 days since TLE Epoch: 5/9/2025
Index Date Time (AQUA) AQUA Lat,Lon GOES-15 Lat,Lon Distance(km) Time Diff (sec)
1 05/11/2025 22:31:31 -0.07, 61.99 -0.02, 61.66 36.96 80
2 05/12/2025 10:50:51 -0.91, 57.31 0.04, 61.67 495.66 80
3 05/14/2025 10:30:41 0.16, 62.25 0.04, 61.71 61.72 80
4 05/14/2025 22:49:52 0.86, 57.62 -0.06, 61.73 468.23 80
5 05/16/2025 22:29:41 -0.19, 62.56 -0.05, 61.77 88.97 80
6 05/17/2025 10:49:02 -0.76, 57.88 0.07, 61.78 443.58 80
7 05/19/2025 10:28:50 0.27, 62.83 0.06, 61.83 113.38 80
8 05/19/2025 22:48:01 0.73, 58.19 -0.08, 61.85 416.91 80
9 05/21/2025 22:27:49 -0.35, 63.14 -0.06, 61.91 140.23 80
10 05/22/2025 10:47:09 -0.64, 58.46 0.08, 61.91 392.03 80
